Regional Weather Roundup
Issued by NWS

Home | Current Version | Previous Version | Text Only | Print | Product List | Glossary Off
Versions: 1 2 3 4 5 6 7 8 9 10 11 12 13 14 15 16 17 18 19 20 21 22 23 24 25 26 27 28

000
ASUS45 KSLC 231810
RWRUT

UTAH REGIONAL WEATHER ROUNDUP
NATIONAL WEATHER SERVICE SALT LAKE CITY UT
1200 PM MDT FRI JUN 23 2017

UTZ001>011-023>025-231900-

NORTHERN UTAH

CITY           SKY/WX    TMP DP  RH WIND       PRES   REMARKS
BRIGHAM CITY   SUNNY     74  32  21 CALM      30.19S
HILL AFB       SUNNY     73  35  24 NW8       30.20S
LOGAN          SUNNY     72  38  29 VRB3      30.20S
OGDEN          SUNNY     75  35  23 VRB6      30.18S
SALT LAKE CITY SUNNY     79  36  21 NW8       30.17S
TOOELE VALLEY  SUNNY     75  39  27 NW8       30.19S
WENDOVER         N/A     78  24  13 SE12      30.18S
HEBER CITY     SUNNY     73  34  23 NW3       30.20F
WEST JORDAN    SUNNY     76  47  36 NW13      30.20S

$$

UTZ011>015-024>027-231900-

CENTRAL/NORTHEAST UTAH

CITY           SKY/WX    TMP DP  RH WIND       PRES   REMARKS
PROVO AIRPORT  SUNNY     73  43  33 NW6       30.18F
MOAB/CANYONLAN SUNNY     87  27  11 VRB5      30.06F
DELTA          SUNNY     81  19  10 NW9       30.17S
PRICE          SUNNY     85  22  10 NW10      30.17F
RICHFIELD      SUNNY     81  32  17 NE9       30.18F
ROOSEVELT      SUNNY     77  36  22 CALM      30.20F
VERNAL         SUNNY     78  36  21 CALM      30.18F

$$

UTZ013>016-019>022-027-231900-

SOUTHERN UTAH

CITY           SKY/WX    TMP DP  RH WIND       PRES   REMARKS
BRYCE CANYON   SUNNY     81  27  14 W12G18    30.31F
CEDAR CITY     SUNNY     84  26  12 VRB5      30.18S
MILFORD        SUNNY     84  27  12 N15       30.15F
ST GEORGE      CLEAR     95  32  11 CALM      29.94F HX  90
HANKSVILLE     SUNNY     90  25   9 CALM      30.09F
KANAB          SUNNY     91  28  10 S3        30.11F
BLANDING       SUNNY     89  27  11 SW9       30.21S

$$

REGIONAL REPORTS     COLORADO/ARIZONA

CITY           SKY/WX    TMP DP  RH WIND       PRES   REMARKS
CRAIG, CO      SUNNY     72  35  25 N7        30.23F
GRAND JUNCTION SUNNY     85  28  12 VRB5      30.09F
RIFLE, CO      SUNNY     81  29  15 W7        30.13F
MONTROSE, CO   SUNNY     80  32  17 VRB5      30.16F
CORTEZ, CO     SUNNY     89  17   7 CALM      30.13F
COLORADO CITY    N/A     95  34  11 W7        30.11S HX  90
PAGE, AZ       SUNNY     93  28  10 CALM      30.04S
GRAND CANYON   SUNNY     90  27  10 N6        30.23S
KINGMAN, AZ    SUNNY     99  44  15 SW15      29.97S HX  95
FLAGSTAFF, AZ  SUNNY     86  15   7 W9G17     30.25S

$$

REGIONAL REPORTS    NEVADA/IDAHO/WYOMING

CITY           SKY/WX    TMP DP  RH WIND       PRES   REMARKS
LAS VEGAS, NV  SUNNY    102  20   5 VRB6      29.87S HX  94
ELY, NY        SUNNY     77  27  15 VRB3      30.26F
ELKO, NV       SUNNY     75  22  13 CALM      30.23F
POCATELLO, ID  SUNNY     70  35  27 NE13      30.24F
BURLEY, ID     SUNNY     68  35  29 CALM      30.22F
FORT BRIDGER,    N/A     65  31  28 NW6       30.34S
EVANSTON, WY   SUNNY     68  36  30 VRB3      30.31F
ROCK SPRINGS,  SUNNY     64  29  26 NW7       30.29F
KEMMERER, WY     N/A     63  32  31 SW7       30.33S

$$




USA.gov is the U.S. government's official web portal to all federal, state and local government web resources and services.